Time,TemperatureF,DewpointF,PressureIn,WindDirection,WindDirectionDegrees,WindSpeedMPH,WindSpeedGustMPH,Humidity,HourlyPrecipIn,Conditions,Clouds,dailyrainin,SoftwareType,DateUTC
2013-07-17 00:01:00,79.7,77.2,30.20,West,271,0.0,2.0,92,0.00,,,0.00,WUHU216DAVISVP2,2013-07-17 04:01:00,
2013-07-17 00:06:00,79.7,77.2,30.20,West,279,0.0,2.0,92,0.00,,,0.00,WUHU216DAVISVP2,2013-07-17 04:06:00,
2013-07-17 00:11:00,79.7,77.5,30.19,West,279,0.0,1.0,93,0.00,,,0.00,WUHU216DAVISVP2,2013-07-17 04:11:00,
2013-07-17 00:16:00,79.7,77.5,30.19,West,279,0.0,1.0,93,0.00,,,0.00,WUHU216DAVISVP2,2013-07-17 04:16:00,
2013-07-17 00:21:00,79.7,77.5,30.19,West,279,0.0,0.0,93,0.00,,,0.00,WUHU216DAVISVP2,2013-07-17 04:21:00,
2013-07-17 00:26:00,79.7,77.5,30.20,West,279,0.0,1.0,93,0.00,,,0.00,WUHU216DAVISVP2,2013-07-17 04:26:00,
2013-07-17 00:31:00,79.7,77.5,30.20,WNW,292,0.0,1.0,93,0.00,,,0.00,WUHU216DAVISVP2,2013-07-17 04:31:00,
2013-07-17 00:36:00,79.7,77.5,30.20,WNW,293,0.0,1.0,93,0.00,,,0.00,WUHU216DAVISVP2,2013-07-17 04:36:00,
2013-07-17 00:41:00,79.6,77.4,30.19,WNW,292,0.0,0.0,93,0.00,,,0.00,WUHU216DAVISVP2,2013-07-17 04:41:00,
2013-07-17 00:46:00,79.6,77.4,30.19,WNW,292,0.0,0.0,93,0.00,,,0.00,WUHU216DAVISVP2,2013-07-17 04:46:00,
2013-07-17 00:51:00,79.6,77.4,30.19,WNW,285,0.0,1.0,93,0.00,,,0.00,WUHU216DAVISVP2,2013-07-17 04:51:00,
2013-07-17 00:55:00,79.5,77.3,30.19,WNW,285,0.0,1.0,93,0.00,,,0.00,WUHU216DAVISVP2,2013-07-17 04:55:00,
2013-07-17 00:59:00,79.5,77.3,30.19,WNW,285,0.0,0.0,93,0.00,,,0.00,WUHU216DAVISVP2,2013-07-17 04:59:00,
2013-07-17 01:04:00,79.5,77.3,30.19,SW,219,0.0,0.0,93,0.00,,,0.00,WUHU216DAVISVP2,2013-07-17 05:04:00,
2013-07-17 01:09:00,79.4,77.2,30.19,SW,219,0.0,0.0,93,0.00,,,0.00,WUHU216DAVISVP2,2013-07-17 05:09:00,
2013-07-17 01:14:00,79.4,77.2,30.19,SW,219,0.0,0.0,93,0.00,,,0.00,WUHU216DAVISVP2,2013-07-17 05:14:00,
2013-07-17 01:19:00,79.4,77.2,30.19,SW,219,0.0,0.0,93,0.00,,,0.00,WUHU216DAVISVP2,2013-07-17 05:19:00,
2013-07-17 01:24:00,79.4,77.2,30.19,SW,219,0.0,0.0,93,0.00,,,0.00,WUHU216DAVISVP2,2013-07-17 05:24:00,
2013-07-17 01:29:00,79.3,77.1,30.18,SW,219,0.0,1.0,93,0.00,,,0.00,WUHU216DAVISVP2,2013-07-17 05:29:00,
2013-07-17 01:34:00,79.3,77.1,30.18,SW,219,0.0,1.0,93,0.00,,,0.00,WUHU216DAVISVP2,2013-07-17 05:34:00,
2013-07-17 01:39:00,79.2,77.0,30.18,SW,219,0.0,0.0,93,0.00,,,0.00,WUHU216DAVISVP2,2013-07-17 05:39:00,
2013-07-17 01:44:00,79.2,77.0,30.18,SW,219,0.0,1.0,93,0.00,,,0.00,WUHU216DAVISVP2,2013-07-17 05:44:00,
2013-07-17 01:49:00,79.1,76.9,30.18,SW,219,0.0,1.0,93,0.00,,,0.00,WUHU216DAVISVP2,2013-07-17 05:49:00,
2013-07-17 01:54:00,79.1,76.9,30.18,SW,219,0.0,0.0,93,0.00,,,0.00,WUHU216DAVISVP2,2013-07-17 05:54:00,
2013-07-17 01:59:00,79.1,76.9,30.18,SW,219,0.0,0.0,93,0.00,,,0.00,WUHU216DAVISVP2,2013-07-17 05:59:00,
2013-07-17 02:04:00,79.0,76.8,30.17,SW,219,0.0,1.0,93,0.00,,,0.00,WUHU216DAVISVP2,2013-07-17 06:04:00,
2013-07-17 02:09:00,79.0,76.8,30.17,SW,219,0.0,1.0,93,0.00,,,0.00,WUHU216DAVISVP2,2013-07-17 06:09:00,
2013-07-17 02:14:00,79.0,76.8,30.17,SW,219,0.0,0.0,93,0.00,,,0.00,WUHU216DAVISVP2,2013-07-17 06:14:00,
2013-07-17 02:19:00,79.0,76.8,30.18,SW,219,0.0,0.0,93,0.00,,,0.00,WUHU216DAVISVP2,2013-07-17 06:19:00,
2013-07-17 02:24:00,79.0,76.8,30.18,SW,219,0.0,0.0,93,0.00,,,0.00,WUHU216DAVISVP2,2013-07-17 06:24:00,
2013-07-17 02:29:00,79.0,76.8,30.17,SW,219,0.0,1.0,93,0.00,,,0.00,WUHU216DAVISVP2,2013-07-17 06:29:00,
2013-07-17 02:34:00,79.0,76.8,30.17,SW,219,0.0,1.0,93,0.00,,,0.00,WUHU216DAVISVP2,2013-07-17 06:34:00,
2013-07-17 02:39:00,79.0,76.8,30.17,SW,219,0.0,0.0,93,0.00,,,0.00,WUHU216DAVISVP2,2013-07-17 06:39:00,
2013-07-17 02:44:00,79.0,76.8,30.17,SW,219,0.0,1.0,93,0.00,,,0.00,WUHU216DAVISVP2,2013-07-17 06:44:00,
2013-07-17 02:49:00,79.0,76.8,30.17,SW,219,0.0,1.0,93,0.00,,,0.00,WUHU216DAVISVP2,2013-07-17 06:49:00,
2013-07-17 02:54:00,78.9,76.7,30.18,SW,219,0.0,0.0,93,0.00,,,0.00,WUHU216DAVISVP2,2013-07-17 06:54:00,
2013-07-17 02:59:00,78.9,76.7,30.17,SW,219,0.0,0.0,93,0.00,,,0.00,WUHU216DAVISVP2,2013-07-17 06:59:00,
2013-07-17 03:04:00,78.8,76.6,30.17,SW,219,0.0,0.0,93,0.00,,,0.00,WUHU216DAVISVP2,2013-07-17 07:04:00,
2013-07-17 03:09:00,78.8,76.6,30.17,SW,219,0.0,1.0,93,0.00,,,0.00,WUHU216DAVISVP2,2013-07-17 07:09:00,
2013-07-17 03:14:00,78.8,76.9,30.17,SW,219,0.0,1.0,94,0.00,,,0.00,WUHU216DAVISVP2,2013-07-17 07:14:00,
2013-07-17 03:19:00,78.8,76.9,30.17,SW,219,0.0,1.0,94,0.00,,,0.00,WUHU216DAVISVP2,2013-07-17 07:19:00,
2013-07-17 03:24:00,78.8,76.9,30.17,SW,219,0.0,0.0,94,0.00,,,0.00,WUHU216DAVISVP2,2013-07-17 07:24:00,
2013-07-17 03:29:00,78.9,77.0,30.16,SW,219,0.0,1.0,94,0.00,,,0.00,WUHU216DAVISVP2,2013-07-17 07:29:00,
2013-07-17 03:34:00,78.9,77.0,30.16,SW,218,0.0,1.0,94,0.00,,,0.00,WUHU216DAVISVP2,2013-07-17 07:34:00,
2013-07-17 03:39:00,79.0,77.1,30.16,SW,219,0.0,0.0,94,0.00,,,0.00,WUHU216DAVISVP2,2013-07-17 07:39:00,
2013-07-17 03:44:00,78.9,77.0,30.16,SW,218,0.0,0.0,94,0.00,,,0.00,WUHU216DAVISVP2,2013-07-17 07:44:00,
2013-07-17 03:49:00,78.9,77.0,30.16,SW,218,0.0,0.0,94,0.00,,,0.00,WUHU216DAVISVP2,2013-07-17 07:49:00,
2013-07-17 03:54:00,78.8,76.9,30.16,SW,218,0.0,0.0,94,0.00,,,0.00,WUHU216DAVISVP2,2013-07-17 07:54:00,
2013-07-17 03:59:00,78.7,76.8,30.16,SW,218,0.0,0.0,94,0.00,,,0.00,WUHU216DAVISVP2,2013-07-17 07:59:00,
2013-07-17 04:04:00,78.6,76.7,30.16,SW,218,0.0,0.0,94,0.00,,,0.00,WUHU216DAVISVP2,2013-07-17 08:04:00,
2013-07-17 04:09:00,78.6,76.4,30.16,SW,218,0.0,0.0,93,0.00,,,0.00,WUHU216DAVISVP2,2013-07-17 08:09:00,
2013-07-17 04:14:00,78.5,76.3,30.16,SW,218,0.0,1.0,93,0.00,,,0.00,WUHU216DAVISVP2,2013-07-17 08:14:00,
2013-07-17 04:19:00,78.4,76.2,30.16,SW,218,0.0,1.0,93,0.00,,,0.00,WUHU216DAVISVP2,2013-07-17 08:19:00,
2013-07-17 04:24:00,78.4,76.5,30.16,SW,218,0.0,0.0,94,0.00,,,0.00,WUHU216DAVISVP2,2013-07-17 08:24:00,
2013-07-17 04:29:00,78.3,76.4,30.16,SW,218,0.0,0.0,94,0.00,,,0.00,WUHU216DAVISVP2,2013-07-17 08:29:00,
2013-07-17 04:34:00,78.3,76.4,30.16,SW,218,0.0,0.0,94,0.00,,,0.00,WUHU216DAVISVP2,2013-07-17 08:34:00,
2013-07-17 04:39:00,78.2,76.3,30.16,SW,218,0.0,0.0,94,0.00,,,0.00,WUHU216DAVISVP2,2013-07-17 08:39:00,
2013-07-17 04:44:00,78.2,76.3,30.16,SW,218,0.0,0.0,94,0.00,,,0.00,WUHU216DAVISVP2,2013-07-17 08:44:00,
2013-07-17 04:49:00,78.2,76.3,30.16,SW,218,0.0,0.0,94,0.00,,,0.00,WUHU216DAVISVP2,2013-07-17 08:49:00,
2013-07-17 04:54:00,78.2,76.3,30.16,SW,219,0.0,0.0,94,0.00,,,0.00,WUHU216DAVISVP2,2013-07-17 08:54:00,
2013-07-17 04:59:00,78.2,76.3,30.16,SW,219,0.0,0.0,94,0.00,,,0.00,WUHU216DAVISVP2,2013-07-17 08:59:00,
2013-07-17 05:04:00,78.1,76.2,30.16,SW,219,0.0,0.0,94,0.00,,,0.00,WUHU216DAVISVP2,2013-07-17 09:04:00,
2013-07-17 05:09:00,78.1,76.2,30.16,SW,219,0.0,0.0,94,0.00,,,0.00,WUHU216DAVISVP2,2013-07-17 09:09:00,
2013-07-17 05:14:00,78.1,76.2,30.16,SW,219,0.0,0.0,94,0.00,,,0.00,WUHU216DAVISVP2,2013-07-17 09:14:00,
2013-07-17 05:19:00,78.1,76.2,30.16,SW,219,0.0,0.0,94,0.00,,,0.00,WUHU216DAVISVP2,2013-07-17 09:19:00,
2013-07-17 05:24:00,78.1,76.2,30.16,SW,219,0.0,0.0,94,0.00,,,0.00,WUHU216DAVISVP2,2013-07-17 09:24:00,
2013-07-17 05:29:00,78.1,76.2,30.16,SW,219,0.0,0.0,94,0.00,,,0.00,WUHU216DAVISVP2,2013-07-17 09:29:00,
2013-07-17 05:34:00,78.1,76.2,30.17,SW,219,0.0,0.0,94,0.00,,,0.00,WUHU216DAVISVP2,2013-07-17 09:34:00,
2013-07-17 05:39:00,78.1,76.2,30.17,SW,219,0.0,0.0,94,0.00,,,0.00,WUHU216DAVISVP2,2013-07-17 09:39:00,
2013-07-17 05:44:00,78.1,76.2,30.16,SW,218,0.0,0.0,94,0.00,,,0.00,WUHU216DAVISVP2,2013-07-17 09:44:00,
2013-07-17 05:49:00,78.1,76.2,30.16,SW,218,0.0,0.0,94,0.00,,,0.00,WUHU216DAVISVP2,2013-07-17 09:49:00,
2013-07-17 05:54:00,78.1,76.2,30.17,SW,219,0.0,1.0,94,0.00,,,0.00,WUHU216DAVISVP2,2013-07-17 09:54:00,
2013-07-17 05:59:00,78.2,76.3,30.17,SW,219,0.0,1.0,94,0.00,,,0.00,WUHU216DAVISVP2,2013-07-17 09:59:00,
2013-07-17 06:04:00,78.2,76.3,30.17,SW,219,0.0,1.0,94,0.00,,,0.00,WUHU216DAVISVP2,2013-07-17 10:04:00,
2013-07-17 06:09:00,78.3,76.4,30.17,SW,219,0.0,1.0,94,0.00,,,0.00,WUHU216DAVISVP2,2013-07-17 10:09:00,
2013-07-17 06:14:00,78.3,76.4,30.17,SW,219,0.0,0.0,94,0.00,,,0.00,WUHU216DAVISVP2,2013-07-17 10:14:00,
2013-07-17 06:19:00,78.3,76.4,30.17,SW,219,0.0,0.0,94,0.00,,,0.00,WUHU216DAVISVP2,2013-07-17 10:19:00,
2013-07-17 06:24:00,78.3,76.7,30.17,SW,219,0.0,0.0,95,0.00,,,0.00,WUHU216DAVISVP2,2013-07-17 10:24:00,
2013-07-17 06:29:00,78.4,76.8,30.17,SW,219,0.0,0.0,95,0.00,,,0.00,WUHU216DAVISVP2,2013-07-17 10:29:00,
2013-07-17 06:34:00,78.5,76.9,30.17,SW,225,0.0,0.0,95,0.00,,,0.00,WUHU216DAVISVP2,2013-07-17 10:34:00,
2013-07-17 06:39:00,78.5,76.9,30.17,SW,225,0.0,0.0,95,0.00,,,0.00,WUHU216DAVISVP2,2013-07-17 10:39:00,
2013-07-17 06:44:00,78.5,76.6,30.17,SW,225,0.0,0.0,94,0.00,,,0.00,WUHU216DAVISVP2,2013-07-17 10:44:00,
2013-07-17 06:49:00,78.5,76.9,30.17,West,263,0.0,1.0,95,0.00,,,0.00,WUHU216DAVISVP2,2013-07-17 10:49:00,
2013-07-17 06:54:00,78.6,77.0,30.17,West,263,0.0,1.0,95,0.00,,,0.00,WUHU216DAVISVP2,2013-07-17 10:54:00,
2013-07-17 06:59:00,78.6,76.7,30.17,West,262,0.0,0.0,94,0.00,,,0.00,WUHU216DAVISVP2,2013-07-17 10:59:00,
2013-07-17 07:04:00,78.6,76.7,30.18,West,262,0.0,0.0,94,0.00,,,0.00,WUHU216DAVISVP2,2013-07-17 11:04:00,
2013-07-17 07:09:00,78.6,76.7,30.18,West,263,0.0,0.0,94,0.00,,,0.00,WUHU216DAVISVP2,2013-07-17 11:09:00,
2013-07-17 07:14:00,78.7,76.8,30.18,West,263,0.0,0.0,94,0.00,,,0.00,WUHU216DAVISVP2,2013-07-17 11:14:00,
2013-07-17 07:19:00,78.7,76.8,30.18,West,262,1.0,1.0,94,0.00,,,0.00,WUHU216DAVISVP2,2013-07-17 11:19:00,
2013-07-17 07:24:00,78.8,76.9,30.18,West,263,0.0,1.0,94,0.00,,,0.00,WUHU216DAVISVP2,2013-07-17 11:24:00,
2013-07-17 07:29:00,78.8,76.9,30.18,West,263,0.0,0.0,94,0.00,,,0.00,WUHU216DAVISVP2,2013-07-17 11:29:00,
2013-07-17 07:34:00,78.9,77.0,30.18,West,263,0.0,0.0,94,0.00,,,0.00,WUHU216DAVISVP2,2013-07-17 11:34:00,
2013-07-17 07:39:00,79.0,77.1,30.18,NW,321,0.0,2.0,94,0.00,,,0.00,WUHU216DAVISVP2,2013-07-17 11:39:00,
2013-07-17 07:44:00,79.1,76.9,30.18,NW,321,0.0,2.0,93,0.00,,,0.00,WUHU216DAVISVP2,2013-07-17 11:44:00,
2013-07-17 07:49:00,79.2,77.0,30.18,NNW,331,0.0,1.0,93,0.00,,,0.00,WUHU216DAVISVP2,2013-07-17 11:49:00,
2013-07-17 07:54:00,79.3,77.1,30.18,NNW,331,0.0,1.0,93,0.00,,,0.00,WUHU216DAVISVP2,2013-07-17 11:54:00,
2013-07-17 07:59:00,79.4,77.2,30.19,NNW,330,0.0,1.0,93,0.00,,,0.00,WUHU216DAVISVP2,2013-07-17 11:59:00,
2013-07-17 08:04:00,79.4,77.2,30.19,NNW,330,0.0,1.0,93,0.00,,,0.00,WUHU216DAVISVP2,2013-07-17 12:04:00,
2013-07-17 08:09:00,79.5,77.3,30.19,NNW,330,0.0,0.0,93,0.00,,,0.00,WUHU216DAVISVP2,2013-07-17 12:09:00,
2013-07-17 08:14:00,79.6,77.4,30.19,NNW,330,0.0,0.0,93,0.00,,,0.00,WUHU216DAVISVP2,2013-07-17 12:14:00,
2013-07-17 08:19:00,79.8,77.6,30.19,NW,306,2.0,2.0,93,0.00,,,0.00,WUHU216DAVISVP2,2013-07-17 12:19:00,
2013-07-17 08:24:00,80.0,77.8,30.19,ESE,104,0.0,2.0,93,0.00,,,0.00,WUHU216DAVISVP2,2013-07-17 12:24:00,
2013-07-17 08:29:00,80.2,78.0,30.19,NE,55,0.0,2.0,93,0.00,,,0.00,WUHU216DAVISVP2,2013-07-17 12:29:00,
2013-07-17 08:34:00,80.4,77.8,30.19,North,11,0.0,1.0,92,0.00,,,0.00,WUHU216DAVISVP2,2013-07-17 12:34:00,
2013-07-17 08:39:00,80.5,77.6,30.20,SSE,148,0.0,1.0,91,0.00,,,0.00,WUHU216DAVISVP2,2013-07-17 12:39:00,
2013-07-17 08:44:00,80.6,77.7,30.20,WSW,245,0.0,1.0,91,0.00,,,0.00,WUHU216DAVISVP2,2013-07-17 12:44:00,
2013-07-17 08:49:00,80.8,77.9,30.20,South,188,0.0,1.0,91,0.00,,,0.00,WUHU216DAVISVP2,2013-07-17 12:49:00,
2013-07-17 08:54:00,80.8,77.6,30.20,East,92,0.0,1.0,90,0.00,,,0.00,WUHU216DAVISVP2,2013-07-17 12:54:00,
2013-07-17 08:59:00,81.0,77.8,30.20,East,92,0.0,1.0,90,0.00,,,0.00,WUHU216DAVISVP2,2013-07-17 12:59:00,
2013-07-17 09:04:00,81.1,77.6,30.21,East,92,0.0,1.0,89,0.00,,,0.00,WUHU216DAVISVP2,2013-07-17 13:04:00,
2013-07-17 09:09:00,81.2,77.3,30.21,East,93,0.0,1.0,88,0.00,,,0.00,WUHU216DAVISVP2,2013-07-17 13:09:00,
2013-07-17 09:14:00,81.2,77.3,30.20,SW,223,0.0,1.0,88,0.00,,,0.00,WUHU216DAVISVP2,2013-07-17 13:14:00,
2013-07-17 09:19:00,81.4,77.5,30.20,WSW,244,0.0,1.0,88,0.00,,,0.00,WUHU216DAVISVP2,2013-07-17 13:19:00,
2013-07-17 09:24:00,81.6,77.7,30.20,West,263,0.0,1.0,88,0.00,,,0.00,WUHU216DAVISVP2,2013-07-17 13:24:00,
2013-07-17 09:29:00,81.8,77.6,30.21,SW,236,0.0,1.0,87,0.00,,,0.00,WUHU216DAVISVP2,2013-07-17 13:29:00,
2013-07-17 09:34:00,82.0,77.8,30.21,West,265,2.0,3.0,87,0.00,,,0.00,WUHU216DAVISVP2,2013-07-17 13:34:00,
2013-07-17 09:39:00,82.1,77.5,30.21,NW,326,2.0,3.0,86,0.00,,,0.00,WUHU216DAVISVP2,2013-07-17 13:39:00,
2013-07-17 09:44:00,82.1,77.5,30.21,NNW,333,0.0,3.0,86,0.00,,,0.00,WUHU216DAVISVP2,2013-07-17 13:44:00,
2013-07-17 09:49:00,82.2,77.3,30.21,WNW,298,0.0,4.0,85,0.00,,,0.00,WUHU216DAVISVP2,2013-07-17 13:49:00,
2013-07-17 09:54:00,82.2,77.6,30.22,SSW,196,0.0,4.0,86,0.00,,,0.00,WUHU216DAVISVP2,2013-07-17 13:54:00,
2013-07-17 09:59:00,82.3,77.7,30.22,SSW,203,0.0,1.0,86,0.00,,,0.00,WUHU216DAVISVP2,2013-07-17 13:59:00,
2013-07-17 10:04:00,82.5,77.6,30.22,SSW,211,0.0,1.0,85,0.00,,,0.00,WUHU216DAVISVP2,2013-07-17 14:04:00,
2013-07-17 10:09:00,82.5,77.6,30.22,ESE,113,0.0,1.0,85,0.00,,,0.00,WUHU216DAVISVP2,2013-07-17 14:09:00,
2013-07-17 10:14:00,82.6,78.0,30.21,NE,36,0.0,1.0,86,0.00,,,0.00,WUHU216DAVISVP2,2013-07-17 14:14:00,
2013-07-17 10:19:00,82.7,78.1,30.21,ENE,62,0.0,4.0,86,0.00,,,0.00,WUHU216DAVISVP2,2013-07-17 14:19:00,
2013-07-17 10:24:00,82.8,78.2,30.21,NW,323,0.0,4.0,86,0.00,,,0.00,WUHU216DAVISVP2,2013-07-17 14:24:00,
2013-07-17 10:29:00,82.9,78.0,30.21,NW,307,0.0,3.0,85,0.00,,,0.00,WUHU216DAVISVP2,2013-07-17 14:29:00,
2013-07-17 10:34:00,82.9,78.0,30.21,NW,319,0.0,3.0,85,0.00,,,0.00,WUHU216DAVISVP2,2013-07-17 14:34:00,
2013-07-17 10:39:00,82.8,77.9,30.21,WSW,249,0.0,4.0,85,0.00,,,0.00,WUHU216DAVISVP2,2013-07-17 14:39:00,
2013-07-17 10:44:00,82.8,77.9,30.21,West,277,3.0,5.0,85,0.00,,,0.00,WUHU216DAVISVP2,2013-07-17 14:44:00,
2013-07-17 10:49:00,83.0,78.1,30.21,NW,322,0.0,5.0,85,0.00,,,0.00,WUHU216DAVISVP2,2013-07-17 14:49:00,
2013-07-17 10:54:00,83.4,78.5,30.21,ESE,117,0.0,3.0,85,0.00,,,0.00,WUHU216DAVISVP2,2013-07-17 14:54:00,
2013-07-17 10:59:00,83.6,78.3,30.21,NW,321,0.0,4.0,84,0.00,,,0.00,WUHU216DAVISVP2,2013-07-17 14:59:00,
2013-07-17 11:04:00,83.8,78.5,30.21,NNE,19,0.0,4.0,84,0.00,,,0.00,WUHU216DAVISVP2,2013-07-17 15:04:00,
2013-07-17 11:09:00,83.8,78.2,30.20,WSW,242,0.0,6.0,83,0.00,,,0.00,WUHU216DAVISVP2,2013-07-17 15:09:00,
2013-07-17 11:14:00,83.8,78.2,30.20,NNW,345,0.0,6.0,83,0.00,,,0.00,WUHU216DAVISVP2,2013-07-17 15:14:00,
2013-07-17 11:19:00,83.8,77.8,30.20,WNW,298,0.0,5.0,82,0.00,,,0.00,WUHU216DAVISVP2,2013-07-17 15:19:00,
2013-07-17 11:24:00,83.9,77.9,30.21,WNW,287,0.0,5.0,82,0.00,,,0.00,WUHU216DAVISVP2,2013-07-17 15:24:00,
2013-07-17 11:29:00,84.1,78.1,30.20,NNW,335,1.0,5.0,82,0.00,,,0.00,WUHU216DAVISVP2,2013-07-17 15:29:00,
2013-07-17 11:34:00,84.4,78.4,30.21,West,281,2.0,5.0,82,0.00,,,0.00,WUHU216DAVISVP2,2013-07-17 15:34:00,
2013-07-17 11:39:00,84.5,78.1,30.21,West,281,3.0,4.0,81,0.00,,,0.00,WUHU216DAVISVP2,2013-07-17 15:39:00,
2013-07-17 11:44:00,84.3,77.9,30.21,NNW,331,2.0,5.0,81,0.00,,,0.00,WUHU216DAVISVP2,2013-07-17 15:44:00,
2013-07-17 11:49:00,84.3,77.9,30.20,WNW,292,0.0,5.0,81,0.00,,,0.00,WUHU216DAVISVP2,2013-07-17 15:49:00,
2013-07-17 11:54:00,84.6,78.6,30.20,NNW,338,1.0,3.0,82,0.00,,,0.00,WUHU216DAVISVP2,2013-07-17 15:54:00,
2013-07-17 11:59:00,84.7,78.3,30.20,NNW,334,0.0,4.0,81,0.00,,,0.00,WUHU216DAVISVP2,2013-07-17 15:59:00,
2013-07-17 12:04:00,84.8,78.8,30.20,West,269,0.0,4.0,82,0.00,,,0.00,WUHU216DAVISVP2,2013-07-17 16:04:00,
2013-07-17 12:09:00,85.0,78.6,30.20,NNE,15,0.0,4.0,81,0.00,,,0.00,WUHU216DAVISVP2,2013-07-17 16:09:00,
2013-07-17 12:14:00,85.0,78.3,30.20,NNW,331,1.0,5.0,80,0.00,,,0.00,WUHU216DAVISVP2,2013-07-17 16:14:00,
2013-07-17 12:19:00,84.9,78.2,30.20,NW,323,0.0,5.0,80,0.00,,,0.00,WUHU216DAVISVP2,2013-07-17 16:19:00,
2013-07-17 12:24:00,85.0,78.6,30.20,NNW,338,2.0,6.0,81,0.00,,,0.00,WUHU216DAVISVP2,2013-07-17 16:24:00,
2013-07-17 12:29:00,84.8,78.1,30.20,West,265,1.0,6.0,80,0.00,,,0.00,WUHU216DAVISVP2,2013-07-17 16:29:00,
2013-07-17 12:34:00,84.7,78.0,30.20,NNW,338,0.0,6.0,80,0.00,,,0.00,WUHU216DAVISVP2,2013-07-17 16:34:00,
2013-07-17 12:39:00,85.0,78.6,30.20,WNW,296,0.0,5.0,81,0.00,,,0.00,WUHU216DAVISVP2,2013-07-17 16:39:00,
2013-07-17 12:44:00,85.5,79.1,30.20,East,88,0.0,4.0,81,0.00,,,0.00,WUHU216DAVISVP2,2013-07-17 16:44:00,
2013-07-17 12:49:00,85.9,78.8,30.20,West,259,0.0,4.0,79,0.00,,,0.00,WUHU216DAVISVP2,2013-07-17 16:49:00,
2013-07-17 12:54:00,86.2,79.1,30.20,East,99,0.0,3.0,79,0.00,,,0.00,WUHU216DAVISVP2,2013-07-17 16:54:00,
2013-07-17 12:59:00,86.4,78.9,30.20,NNE,26,0.0,6.0,78,0.00,,,0.00,WUHU216DAVISVP2,2013-07-17 16:59:00,
2013-07-17 13:04:00,86.5,79.0,30.19,East,92,1.0,6.0,78,0.00,,,0.00,WUHU216DAVISVP2,2013-07-17 17:04:00,
2013-07-17 13:09:00,86.6,78.7,30.20,NW,305,2.0,5.0,77,0.00,,,0.00,WUHU216DAVISVP2,2013-07-17 17:09:00,
2013-07-17 13:14:00,86.4,78.5,30.19,NNW,332,4.0,5.0,77,0.00,,,0.00,WUHU216DAVISVP2,2013-07-17 17:14:00,
2013-07-17 13:19:00,86.4,78.9,30.19,NNW,327,1.0,5.0,78,0.00,,,0.00,WUHU216DAVISVP2,2013-07-17 17:19:00,
2013-07-17 13:24:00,86.4,78.9,30.19,West,281,0.0,5.0,78,0.00,,,0.00,WUHU216DAVISVP2,2013-07-17 17:24:00,
2013-07-17 13:29:00,86.5,78.6,30.19,WNW,285,0.0,5.0,77,0.00,,,0.00,WUHU216DAVISVP2,2013-07-17 17:29:00,
2013-07-17 13:35:00,86.6,78.3,30.19,NNE,17,0.0,5.0,76,0.00,,,0.00,WUHU216DAVISVP2,2013-07-17 17:35:00,
2013-07-17 13:40:00,86.6,78.7,30.19,NNW,348,1.0,5.0,77,0.00,,,0.00,WUHU216DAVISVP2,2013-07-17 17:40:00,
2013-07-17 13:45:00,86.6,78.7,30.19,West,272,5.0,6.0,77,0.00,,,0.00,WUHU216DAVISVP2,2013-07-17 17:45:00,
2013-07-17 13:50:00,86.5,78.6,30.19,West,263,0.0,6.0,77,0.00,,,0.00,WUHU216DAVISVP2,2013-07-17 17:50:00,
2013-07-17 13:55:00,86.6,78.7,30.19,NW,317,0.0,6.0,77,0.00,,,0.00,WUHU216DAVISVP2,2013-07-17 17:55:00,
2013-07-17 14:00:00,86.9,79.0,30.19,NE,44,0.0,5.0,77,0.00,,,0.00,WUHU216DAVISVP2,2013-07-17 18:00:00,
2013-07-17 14:05:00,87.1,79.2,30.18,South,177,2.0,4.0,77,0.00,,,0.00,WUHU216DAVISVP2,2013-07-17 18:05:00,
2013-07-17 14:10:00,87.2,78.9,30.18,SSW,213,0.0,4.0,76,0.00,,,0.00,WUHU216DAVISVP2,2013-07-17 18:10:00,
2013-07-17 14:15:00,87.6,78.9,30.18,NNW,327,0.0,4.0,75,0.00,,,0.00,WUHU216DAVISVP2,2013-07-17 18:15:00,
2013-07-17 14:20:00,87.6,78.9,30.18,SSW,200,1.0,4.0,75,0.00,,,0.00,WUHU216DAVISVP2,2013-07-17 18:20:00,
2013-07-17 14:25:00,87.6,78.9,30.18,NNE,13,0.0,4.0,75,0.00,,,0.00,WUHU216DAVISVP2,2013-07-17 18:25:00,
2013-07-17 14:30:00,87.7,79.0,30.18,NW,317,0.0,3.0,75,0.00,,,0.00,WUHU216DAVISVP2,2013-07-17 18:30:00,
2013-07-17 14:35:00,87.5,78.8,30.18,WNW,294,0.0,6.0,75,0.00,,,0.00,WUHU216DAVISVP2,2013-07-17 18:35:00,
2013-07-17 14:40:00,87.5,79.2,30.18,WNW,298,0.0,6.0,76,0.00,,,0.00,WUHU216DAVISVP2,2013-07-17 18:40:00,
2013-07-17 14:45:00,87.3,78.6,30.18,SW,236,0.0,7.0,75,0.00,,,0.00,WUHU216DAVISVP2,2013-07-17 18:45:00,
2013-07-17 14:50:00,87.1,78.4,30.17,WSW,248,3.0,7.0,75,0.00,,,0.00,WUHU216DAVISVP2,2013-07-17 18:50:00,
2013-07-17 14:55:00,86.9,79.0,30.17,ENE,57,0.0,6.0,77,0.00,,,0.00,WUHU216DAVISVP2,2013-07-17 18:55:00,
2013-07-17 15:00:00,87.2,79.3,30.17,WNW,291,0.0,4.0,77,0.00,,,0.00,WUHU216DAVISVP2,2013-07-17 19:00:00,
2013-07-17 15:05:00,87.4,79.1,30.17,NW,323,3.0,4.0,76,0.00,,,0.00,WUHU216DAVISVP2,2013-07-17 19:05:00,
2013-07-17 15:10:00,87.4,78.7,30.17,NE,34,0.0,4.0,75,0.00,,,0.00,WUHU216DAVISVP2,2013-07-17 19:10:00,
2013-07-17 15:15:00,87.2,78.9,30.16,NW,324,2.0,4.0,76,0.00,,,0.00,WUHU216DAVISVP2,2013-07-17 19:15:00,
2013-07-17 15:20:00,87.1,78.4,30.16,West,260,1.0,4.0,75,0.00,,,0.00,WUHU216DAVISVP2,2013-07-17 19:20:00,
2013-07-17 15:25:00,86.8,78.9,30.16,NNW,334,0.0,4.0,77,0.00,,,0.00,WUHU216DAVISVP2,2013-07-17 19:25:00,
2013-07-17 15:30:00,87.0,78.3,30.15,West,264,0.0,4.0,75,0.00,,,0.00,WUHU216DAVISVP2,2013-07-17 19:30:00,
2013-07-17 15:35:00,87.0,78.7,30.15,NNE,28,0.0,4.0,76,0.00,,,0.00,WUHU216DAVISVP2,2013-07-17 19:35:00,
2013-07-17 15:40:00,87.1,78.8,30.15,SW,223,2.0,3.0,76,0.00,,,0.00,WUHU216DAVISVP2,2013-07-17 19:40:00,
2013-07-17 15:45:00,87.2,79.3,30.15,ESE,112,0.0,3.0,77,0.00,,,0.00,WUHU216DAVISVP2,2013-07-17 19:45:00,
2013-07-17 15:50:00,87.1,78.8,30.15,East,101,0.0,3.0,76,0.00,,,0.00,WUHU216DAVISVP2,2013-07-17 19:50:00,
2013-07-17 15:55:00,87.0,78.7,30.15,NNW,327,0.0,5.0,76,0.00,,,0.00,WUHU216DAVISVP2,2013-07-17 19:55:00,
2013-07-17 16:00:00,86.6,77.9,30.15,SW,234,0.0,7.0,75,0.00,,,0.00,WUHU216DAVISVP2,2013-07-17 20:00:00,
2013-07-17 16:05:00,86.5,78.6,30.14,NW,315,2.0,7.0,77,0.00,,,0.00,WUHU216DAVISVP2,2013-07-17 20:05:00,
2013-07-17 16:10:00,86.1,78.2,30.14,NW,319,0.0,3.0,77,0.00,,,0.00,WUHU216DAVISVP2,2013-07-17 20:10:00,
2013-07-17 16:15:00,86.3,78.8,30.14,SSW,207,0.0,3.0,78,0.00,,,0.00,WUHU216DAVISVP2,2013-07-17 20:15:00,
2013-07-17 16:20:00,86.3,78.4,30.14,NNW,333,3.0,3.0,77,0.00,,,0.00,WUHU216DAVISVP2,2013-07-17 20:20:00,
2013-07-17 16:25:00,86.2,78.7,30.14,North,9,0.0,3.0,78,0.00,,,0.00,WUHU216DAVISVP2,2013-07-17 20:25:00,
2013-07-17 16:30:00,86.3,78.4,30.14,SE,146,0.0,3.0,77,0.00,,,0.00,WUHU216DAVISVP2,2013-07-17 20:30:00,
2013-07-17 16:35:00,86.4,78.5,30.13,ESE,121,0.0,3.0,77,0.00,,,0.00,WUHU216DAVISVP2,2013-07-17 20:35:00,
2013-07-17 16:40:00,86.7,79.2,30.13,NNW,334,1.0,3.0,78,0.00,,,0.00,WUHU216DAVISVP2,2013-07-17 20:40:00,
2013-07-17 16:45:00,86.8,78.9,30.13,WNW,294,0.0,4.0,77,0.00,,,0.00,WUHU216DAVISVP2,2013-07-17 20:45:00,
2013-07-17 16:50:00,86.8,78.5,30.13,SW,225,0.0,4.0,76,0.00,,,0.00,WUHU216DAVISVP2,2013-07-17 20:50:00,
2013-07-17 16:55:00,86.5,78.6,30.13,WNW,298,0.0,1.0,77,0.00,,,0.00,WUHU216DAVISVP2,2013-07-17 20:55:00,
2013-07-17 17:00:00,86.4,78.5,30.13,NNW,346,0.0,2.0,77,0.00,,,0.00,WUHU216DAVISVP2,2013-07-17 21:00:00,
2013-07-17 17:05:00,86.5,79.0,30.13,North,5,0.0,2.0,78,0.00,,,0.00,WUHU216DAVISVP2,2013-07-17 21:05:00,
2013-07-17 17:10:00,86.4,78.5,30.13,SW,223,0.0,4.0,77,0.00,,,0.00,WUHU216DAVISVP2,2013-07-17 21:10:00,
2013-07-17 17:15:00,86.1,78.6,30.12,ENE,76,0.0,4.0,78,0.00,,,0.00,WUHU216DAVISVP2,2013-07-17 21:15:00,
2013-07-17 17:20:00,85.8,78.3,30.12,NE,55,1.0,2.0,78,0.00,,,0.00,WUHU216DAVISVP2,2013-07-17 21:20:00,
2013-07-17 17:25:00,85.7,78.2,30.12,WSW,256,0.0,3.0,78,0.00,,,0.00,WUHU216DAVISVP2,2013-07-17 21:25:00,
2013-07-17 17:30:00,86.0,78.5,30.12,North,10,0.0,3.0,78,0.00,,,0.00,WUHU216DAVISVP2,2013-07-17 21:30:00,
2013-07-17 17:35:00,85.8,78.7,30.12,WSW,254,0.0,2.0,79,0.00,,,0.00,WUHU216DAVISVP2,2013-07-17 21:35:00,
2013-07-17 17:40:00,85.5,78.8,30.12,WSW,243,0.0,1.0,80,0.00,,,0.00,WUHU216DAVISVP2,2013-07-17 21:40:00,
2013-07-17 17:45:00,85.0,78.3,30.12,South,184,0.0,1.0,80,0.00,,,0.00,WUHU216DAVISVP2,2013-07-17 21:45:00,
2013-07-17 17:50:00,84.9,78.5,30.12,SSW,212,0.0,5.0,81,0.00,,,0.00,WUHU216DAVISVP2,2013-07-17 21:50:00,
2013-07-17 17:55:00,84.7,78.3,30.12,South,173,2.0,5.0,81,0.00,,,0.00,WUHU216DAVISVP2,2013-07-17 21:55:00,
2013-07-17 18:00:00,84.2,77.5,30.12,NNE,24,0.0,3.0,80,0.00,,,0.00,WUHU216DAVISVP2,2013-07-17 22:00:00,
2013-07-17 18:05:00,83.9,77.2,30.12,SSW,205,0.0,2.0,80,0.00,,,0.00,WUHU216DAVISVP2,2013-07-17 22:05:00,
2013-07-17 18:10:00,83.7,76.6,30.12,WSW,242,0.0,1.0,79,0.00,,,0.00,WUHU216DAVISVP2,2013-07-17 22:10:00,
2013-07-17 18:15:00,83.5,76.4,30.12,South,178,0.0,1.0,79,0.00,,,0.00,WUHU216DAVISVP2,2013-07-17 22:15:00,
2013-07-17 18:20:00,83.5,76.8,30.12,ESE,113,0.0,3.0,80,0.00,,,0.00,WUHU216DAVISVP2,2013-07-17 22:20:00,
2013-07-17 18:25:00,83.4,76.7,30.12,ESE,117,0.0,3.0,80,0.00,,,0.00,WUHU216DAVISVP2,2013-07-17 22:25:00,
2013-07-17 18:30:00,83.4,76.7,30.12,SSW,196,0.0,1.0,80,0.00,,,0.00,WUHU216DAVISVP2,2013-07-17 22:30:00,
2013-07-17 18:35:00,83.4,76.7,30.12,South,182,0.0,1.0,80,0.00,,,0.00,WUHU216DAVISVP2,2013-07-17 22:35:00,
2013-07-17 18:40:00,83.2,76.5,30.12,South,170,0.0,1.0,80,0.00,,,0.00,WUHU216DAVISVP2,2013-07-17 22:40:00,
2013-07-17 18:45:00,83.2,76.5,30.11,South,173,0.0,1.0,80,0.00,,,0.00,WUHU216DAVISVP2,2013-07-17 22:45:00,
2013-07-17 18:50:00,83.2,76.9,30.11,South,191,0.0,1.0,81,0.00,,,0.00,WUHU216DAVISVP2,2013-07-17 22:50:00,
2013-07-17 18:55:00,83.1,76.8,30.11,South,191,0.0,1.0,81,0.00,,,0.00,WUHU216DAVISVP2,2013-07-17 22:55:00,
2013-07-17 19:00:00,83.1,76.8,30.11,South,191,0.0,1.0,81,0.00,,,0.00,WUHU216DAVISVP2,2013-07-17 23:00:00,
2013-07-17 19:05:00,83.0,77.0,30.11,South,191,0.0,1.0,82,0.00,,,0.00,WUHU216DAVISVP2,2013-07-17 23:05:00,
2013-07-17 19:10:00,83.1,77.1,30.11,South,191,0.0,0.0,82,0.00,,,0.00,WUHU216DAVISVP2,2013-07-17 23:10:00,
2013-07-17 19:15:00,82.9,76.9,30.11,South,190,0.0,0.0,82,0.00,,,0.00,WUHU216DAVISVP2,2013-07-17 23:15:00,
2013-07-17 19:20:00,82.8,76.8,30.11,South,190,0.0,1.0,82,0.00,,,0.00,WUHU216DAVISVP2,2013-07-17 23:20:00,
2013-07-17 19:25:00,82.7,76.7,30.11,South,189,0.0,1.0,82,0.00,,,0.00,WUHU216DAVISVP2,2013-07-17 23:25:00,
2013-07-17 19:30:00,82.6,76.6,30.10,South,190,0.0,1.0,82,0.00,,,0.00,WUHU216DAVISVP2,2013-07-17 23:30:00,
2013-07-17 19:35:00,82.5,76.5,30.10,South,190,0.0,1.0,82,0.00,,,0.00,WUHU216DAVISVP2,2013-07-17 23:35:00,
2013-07-17 19:40:00,82.4,76.8,30.10,South,190,0.0,1.0,83,0.00,,,0.00,WUHU216DAVISVP2,2013-07-17 23:40:00,
2013-07-17 19:45:00,82.2,76.6,30.10,South,189,0.0,1.0,83,0.00,,,0.00,WUHU216DAVISVP2,2013-07-17 23:45:00,
2013-07-17 19:50:00,81.9,76.7,30.10,South,189,0.0,1.0,84,0.00,,,0.00,WUHU216DAVISVP2,2013-07-17 23:50:00,
2013-07-17 19:55:00,81.7,76.5,30.11,South,189,0.0,1.0,84,0.00,,,0.00,WUHU216DAVISVP2,2013-07-17 23:55:00,
2013-07-17 20:00:00,81.6,76.4,30.11,South,190,0.0,0.0,84,0.00,,,0.00,WUHU216DAVISVP2,2013-07-18 00:00:00,
2013-07-17 20:05:00,81.6,76.7,30.11,South,190,0.0,1.0,85,0.00,,,0.00,WUHU216DAVISVP2,2013-07-18 00:05:00,
2013-07-17 20:10:00,81.6,76.7,30.12,South,190,0.0,1.0,85,0.00,,,0.00,WUHU216DAVISVP2,2013-07-18 00:10:00,
2013-07-17 20:15:00,81.6,76.7,30.12,South,190,0.0,0.0,85,0.00,,,0.00,WUHU216DAVISVP2,2013-07-18 00:15:00,
2013-07-17 20:20:00,81.6,76.7,30.12,South,190,0.0,0.0,85,0.00,,,0.00,WUHU216DAVISVP2,2013-07-18 00:20:00,
2013-07-17 20:25:00,81.4,76.5,30.12,South,190,0.0,1.0,85,0.00,,,0.00,WUHU216DAVISVP2,2013-07-18 00:25:00,
2013-07-17 20:30:00,81.4,76.2,30.13,South,190,0.0,1.0,84,0.00,,,0.00,WUHU216DAVISVP2,2013-07-18 00:30:00,
2013-07-17 20:35:00,81.3,76.1,30.12,South,189,0.0,0.0,84,0.00,,,0.00,WUHU216DAVISVP2,2013-07-18 00:35:00,
2013-07-17 20:40:00,81.2,76.3,30.13,South,189,0.0,0.0,85,0.00,,,0.00,WUHU216DAVISVP2,2013-07-18 00:40:00,
2013-07-17 20:45:00,81.1,76.2,30.12,South,189,0.0,0.0,85,0.00,,,0.00,WUHU216DAVISVP2,2013-07-18 00:45:00,
2013-07-17 20:50:00,80.9,76.0,30.13,South,189,0.0,0.0,85,0.00,,,0.00,WUHU216DAVISVP2,2013-07-18 00:50:00,
2013-07-17 20:55:00,80.9,76.0,30.13,South,189,0.0,0.0,85,0.00,,,0.00,WUHU216DAVISVP2,2013-07-18 00:55:00,
2013-07-17 21:00:00,80.7,75.8,30.14,South,189,0.0,0.0,85,0.00,,,0.00,WUHU216DAVISVP2,2013-07-18 01:00:00,
2013-07-17 21:05:00,80.6,75.7,30.14,South,189,0.0,0.0,85,0.00,,,0.00,WUHU216DAVISVP2,2013-07-18 01:05:00,
2013-07-17 21:10:00,80.5,75.6,30.14,South,189,0.0,0.0,85,0.00,,,0.00,WUHU216DAVISVP2,2013-07-18 01:10:00,
2013-07-17 21:15:00,80.4,75.5,30.15,South,189,0.0,0.0,85,0.00,,,0.00,WUHU216DAVISVP2,2013-07-18 01:15:00,
2013-07-17 21:20:00,80.3,75.4,30.15,South,188,0.0,0.0,85,0.00,,,0.00,WUHU216DAVISVP2,2013-07-18 01:20:00,
2013-07-17 21:25:00,80.2,75.3,30.15,South,188,0.0,0.0,85,0.00,,,0.00,WUHU216DAVISVP2,2013-07-18 01:25:00,
2013-07-17 21:30:00,80.1,75.6,30.15,South,188,0.0,0.0,86,0.00,,,0.00,WUHU216DAVISVP2,2013-07-18 01:30:00,
2013-07-17 21:35:00,80.0,75.5,30.15,South,188,0.0,0.0,86,0.00,,,0.00,WUHU216DAVISVP2,2013-07-18 01:35:00,
2013-07-17 21:40:00,79.9,75.4,30.15,South,188,0.0,0.0,86,0.00,,,0.00,WUHU216DAVISVP2,2013-07-18 01:40:00,
2013-07-17 21:45:00,79.8,75.3,30.16,South,187,0.0,0.0,86,0.00,,,0.00,WUHU216DAVISVP2,2013-07-18 01:45:00,
2013-07-17 21:50:00,79.7,75.5,30.16,South,187,0.0,0.0,87,0.00,,,0.00,WUHU216DAVISVP2,2013-07-18 01:50:00,
2013-07-17 21:55:00,79.7,75.5,30.16,South,186,0.0,0.0,87,0.00,,,0.00,WUHU216DAVISVP2,2013-07-18 01:55:00,
2013-07-17 22:00:00,79.6,75.4,30.16,South,190,0.0,0.0,87,0.00,,,0.00,WUHU216DAVISVP2,2013-07-18 02:00:00,
2013-07-17 22:05:00,79.6,75.4,30.16,South,190,0.0,0.0,87,0.00,,,0.00,WUHU216DAVISVP2,2013-07-18 02:05:00,
2013-07-17 22:10:00,79.5,75.6,30.15,South,190,0.0,0.0,88,0.00,,,0.00,WUHU216DAVISVP2,2013-07-18 02:10:00,
2013-07-17 22:15:00,79.4,75.5,30.15,South,190,0.0,0.0,88,0.00,,,0.00,WUHU216DAVISVP2,2013-07-18 02:15:00,
2013-07-17 22:20:00,79.4,75.5,30.15,South,190,0.0,0.0,88,0.00,,,0.00,WUHU216DAVISVP2,2013-07-18 02:20:00,
2013-07-17 22:25:00,79.3,75.5,30.15,South,190,0.0,0.0,88,0.00,,,0.00,WUHU216DAVISVP2,2013-07-18 02:25:00,
2013-07-17 22:30:00,79.2,75.4,30.15,South,190,0.0,0.0,88,0.00,,,0.00,WUHU216DAVISVP2,2013-07-18 02:30:00,
2013-07-17 22:35:00,79.2,75.4,30.15,South,190,0.0,0.0,88,0.00,,,0.00,WUHU216DAVISVP2,2013-07-18 02:35:00,
2013-07-17 22:40:00,79.0,75.2,30.14,South,190,0.0,0.0,88,0.00,,,0.00,WUHU216DAVISVP2,2013-07-18 02:40:00,
2013-07-17 22:45:00,79.0,75.2,30.14,South,190,0.0,0.0,88,0.00,,,0.00,WUHU216DAVISVP2,2013-07-18 02:45:00,
2013-07-17 22:50:00,78.9,75.1,30.14,South,190,0.0,0.0,88,0.00,,,0.00,WUHU216DAVISVP2,2013-07-18 02:50:00,
2013-07-17 22:55:00,78.7,75.2,30.13,South,190,0.0,0.0,89,0.00,,,0.00,WUHU216DAVISVP2,2013-07-18 02:55:00,
2013-07-17 23:00:00,78.6,75.1,30.14,South,190,0.0,0.0,89,0.00,,,0.00,WUHU216DAVISVP2,2013-07-18 03:00:00,
2013-07-17 23:06:00,78.5,75.0,30.14,South,190,0.0,0.0,89,0.00,,,0.00,WUHU216DAVISVP2,2013-07-18 03:06:00,
2013-07-17 23:10:00,78.4,74.9,30.14,South,190,0.0,0.0,89,0.00,,,0.00,WUHU216DAVISVP2,2013-07-18 03:10:00,
2013-07-17 23:15:00,78.3,75.1,30.14,South,190,0.0,0.0,90,0.00,,,0.00,WUHU216DAVISVP2,2013-07-18 03:15:00,
2013-07-17 23:20:00,78.2,75.0,30.14,South,190,0.0,0.0,90,0.00,,,0.00,WUHU216DAVISVP2,2013-07-18 03:20:00,
2013-07-17 23:25:00,78.2,75.0,30.14,South,190,0.0,0.0,90,0.00,,,0.00,WUHU216DAVISVP2,2013-07-18 03:25:00,
2013-07-17 23:30:00,78.1,74.9,30.13,South,190,0.0,0.0,90,0.00,,,0.00,WUHU216DAVISVP2,2013-07-18 03:30:00,
2013-07-17 23:35:00,78.1,75.2,30.13,South,190,0.0,0.0,91,0.00,,,0.00,WUHU216DAVISVP2,2013-07-18 03:35:00,
2013-07-17 23:40:00,78.2,75.3,30.13,South,190,0.0,0.0,91,0.00,,,0.00,WUHU216DAVISVP2,2013-07-18 03:40:00,
2013-07-17 23:45:00,78.2,75.3,30.14,South,190,0.0,0.0,91,0.00,,,0.00,WUHU216DAVISVP2,2013-07-18 03:45:00,
2013-07-17 23:50:00,78.2,75.3,30.13,South,190,0.0,0.0,91,0.00,,,0.00,WUHU216DAVISVP2,2013-07-18 03:50:00,
2013-07-17 23:55:00,78.2,75.3,30.13,South,190,0.0,0.0,91,0.00,,,0.00,WUHU216DAVISVP2,2013-07-18 03:55:00,